Location: Unspecified
(47.5840°N, 122.3000°W)
Time: 19:12:10
(UTC+00:00)

IRIDIUM 114 - Pass Details

Date: 21 March 2026
Orbit: 776 x 779 km, 86.4° (Epoch: 14 April)

Event Time Altitude Azimuth Distance (km) Brightness Sun altitude
Exits shadow 05:54:19 21° 252° (WSW) 1,700 6.3 -33.1°
Maximum altitude 05:56:17 26° 285° (WNW) 1,498 6.2 -33.3°
Drops below altitude 10° 06:00:39 10° 342° (NNW) 2,341 7.5 -33.8°
Sets 06:03:23 0° 355° (N) 3,273 8.3 -34.1°
